SES-20

Last updated on Thu Jul 03 2025 00:02:49 GMT+0000 (Coordinated Universal Time)

1 53960U 22123A 25182.61822197 -.00000097 00000+0 00000+0 0 9992 2 53960 0.0186 43.3804 0002136 40.9747 315.0101 1.00270401 10013
UTC large
Height (km)
Speed (km/s)
/
Latitude / Longitude
Inclination (degrees)
Orbital Period (minutes)
Azimuth
Elevation
Range (km)
Doppler Factor

Next 0 passes for location: London (51.5072 / 0.1276)

Sorry there are no passes over London.